Ephrata, WA
on Wednesday, November 28, 2012

Wednesday
Previous Day Next Day
Daily Summary
 ActualAverageRecord
Temperature
Mean Temperature °F 32°F  
Max Temperature 39°F 39°F 58°F (1995)
Min Temperature 22°F 25°F 1°F (1985)
Degree Days
Heating Degree Days 34 33  
Month to date heating degree days 707 771  
Since 1 July heating degree days 1202 1352  
Cooling Degree Days 0 0  
Month to date cooling degree days 0 0  
Year to date cooling degree days 837 772  
Moisture
Dew Point 27°F   
Average Humidity 91    
Maximum Humidity 100    
Minimum Humidity 82    
Precipitation
Precipitation 0.06 in 0.04 in 0.64 in (2001)
Month to date precipitation 1.06 0.98  
Year to date precipitation 6.92 6.53  
Wind
Wind Speed 2 mph   
Max Wind Speed 15 mph   
Max Gust Speed 17 mph   
Visibility 6 miles   
Events Fog , Rain   

Key: T is trace of precipitation, MM is missing value
Source: NWS Daily Summary
Time(PST)TemperatureDew PointHumidity Pressure Visibility Wind DirectionWind SpeedGust SpeedPrecipitationEvents Conditions
12:26 AM 26.6°F 26.6°F 100% 30.09 in 1.0 miles Calm Calm - N/A   Mist
12:41 AM 26.6°F 26.6°F 100% 30.09 in 3.0 miles Calm Calm - N/A   Overcast
12:53 AM 28.0°F 26.1°F 92% 30.12 in 5.0 miles NE 3.5 mph - N/A   Overcast
1:53 AM 27.0°F 26.1°F 96% 30.13 in 5.0 miles Calm Calm - N/A   Mostly Cloudy
2:11 AM 26.6°F 24.8°F 93% 30.08 in 5.0 miles Calm Calm - N/A   Scattered Clouds
2:53 AM 27.0°F 25.0°F 92% 30.11 in 7.0 miles Calm Calm - N/A   Clear
3:53 AM 24.1°F 21.9°F 91% 30.09 in 6.0 miles SE 3.5 mph - N/A   Partly Cloudy
4:05 AM 24.8°F 23.0°F 93% 30.04 in 1.8 miles SE 3.5 mph - N/A   Partly Cloudy
4:14 AM 23.0°F 21.2°F 93% 30.04 in 0.8 miles SSE 3.5 mph - N/A   Mist
4:28 AM 23.0°F 21.2°F 93% 30.03 in 2.0 miles Calm Calm - N/A   Mostly Cloudy
4:40 AM 24.8°F 23.0°F 93% 30.03 in 0.8 miles Calm Calm - N/A   Mist
4:53 AM 23.0°F 21.9°F 96% 30.08 in 0.2 miles Calm Calm - N/A Fog Light Freezing Fog
5:12 AM 23.0°F 21.2°F 93% 30.03 in 1.0 miles Calm Calm - N/A   Mist
5:17 AM 23.0°F 23.0°F 100% 30.03 in 3.0 miles Calm Calm - N/A   Mostly Cloudy
5:41 AM 23.0°F 21.2°F 93% 30.02 in 7.0 miles Calm Calm - N/A   Partly Cloudy
5:53 AM 23.0°F 21.0°F 92% 30.06 in 8.0 miles Calm Calm - N/A   Partly Cloudy
6:12 AM 23.0°F 19.4°F 86% 30.02 in 5.0 miles Calm Calm - N/A   Mostly Cloudy
6:30 AM 23.0°F 21.2°F 93% 30.01 in 1.8 miles Calm Calm - N/A   Overcast
6:40 AM 23.0°F 21.2°F 93% 30.01 in 4.0 miles Calm Calm - N/A   Mostly Cloudy
6:53 AM 23.0°F 19.9°F 88% 30.06 in 10.0 miles Calm Calm - N/A   Scattered Clouds
7:53 AM 24.1°F 21.9°F 91% 30.03 in 10.0 miles Calm Calm - N/A   Clear
8:53 AM 27.0°F 25.0°F 92% 30.03 in 10.0 miles Calm Calm - N/A   Clear
9:53 AM 30.0°F 28.0°F 92% 29.99 in 10.0 miles NNE 5.8 mph - N/A   Clear
10:53 AM 32.0°F 30.0°F 92% 29.97 in 10.0 miles NE 3.5 mph - N/A   Clear
11:53 AM 36.0°F 30.9°F 82% 29.93 in 10.0 miles North 3.5 mph - N/A   Clear
12:53 PM 37.9°F 32.0°F 79% 29.89 in 10.0 miles North 4.6 mph - N/A   Clear
1:53 PM 37.0°F 33.1°F 86% 29.87 in 10.0 miles Calm Calm - N/A   Overcast
2:53 PM 37.0°F 32.0°F 82% 29.83 in 10.0 miles North 8.1 mph - 0.00 in Rain Light Rain
3:53 PM 36.0°F 33.1°F 89% 29.86 in 10.0 miles Calm Calm - 0.00 in Rain Light Rain
4:53 PM 35.1°F 33.1°F 92% 29.84 in 6.0 miles ENE 3.5 mph - 0.03 in Rain Light Rain
5:37 PM 33.8°F 33.8°F 100% 29.80 in 4.0 miles Calm Calm - 0.01 in Rain Light Rain
5:53 PM 34.0°F 33.1°F 96% 29.84 in 4.0 miles Calm Calm - 0.02 in Rain Light Rain
6:53 PM 33.1°F 33.1°F 100% 29.86 in 5.0 miles SSW 4.6 mph - 0.01 in Rain Light Rain
7:53 PM 33.1°F 32.0°F 96% 29.86 in 5.0 miles South 3.5 mph - 0.00 in   Overcast
8:53 PM 32.0°F 32.0°F 100% 29.87 in 5.0 miles Calm Calm - N/A   Overcast
9:53 PM 33.1°F 32.0°F 96% 29.88 in 5.0 miles South 4.6 mph - N/A   Overcast
10:02 PM 33.8°F 33.8°F 100% 29.84 in 5.0 miles South 4.6 mph - N/A   Overcast
10:53 PM 33.1°F 32.0°F 96% 29.88 in 5.0 miles Calm Calm - N/A   Overcast
11:26 PM 33.8°F 32.0°F 93% 29.85 in 5.0 miles Calm Calm - N/A   Overcast
11:38 PM 33.8°F 32.0°F 93% 29.85 in 5.0 miles Calm Calm - N/A   Overcast
11:53 PM 33.1°F 32.0°F 96% 29.89 in 4.0 miles Calm Calm - N/A   Overcast
Moon Phase
Nov. 28 Dec. 06 Dec. 13 Dec. 20 Dec. 28
Sunrise:07:21 AM (PST) Moon Rise:04:29 PM (PST)11/28
Sunset:04:11 PM (PST) Moon Set:07:23 AM (PST)11/28

Copyright © 2014 The Weather Underground, Inc.